Regional Weather Roundup
Issued by NWS

Home | Current Version | Previous Version | Graphics & Text | Print | Product List | Glossary On
Versions: 1 2 3 4 5 6 7 8 9 10 11 12 13 14 15 16 17 18 19 20 21 22 23 24 25 26 27 28 29 30 31 32 33 34 35 36 37 38 39 40 41 42 43 44 45 46 47 48 49 50
000
ASUS43 KMPX 100101
RWRMN
WEATHER ROUNDUP FOR MINNESOTA
NATIONAL WEATHER SERVICE TWIN CITIES/CHANHASSEN MN
700 PM CST FRI DEC 09 2016


NOTE: "FAIR" INDICATES FEW OR NO CLOUDS BELOW 12,000 FEET WITH NO
SIGNIFICANT WEATHER AND/OR OBSTRUCTIONS TO VISIBILITY. N/A MEANS
CURRENT SKY AND/OR WEATHER CONDITIONS ARE NOT AVAILABLE.

MNZ060>063-068>070-100200-
   Twin Cities Metro

CITY           SKY/WX    TMP DP  RH WIND       PRES   REMARKS
TWIN CITIES    MOCLDY    14   6  70 NW9       30.50S WCI   2
ST PAUL        CLOUDY    15   6  67 W8        30.52R WCI   4
CRYSTAL        CLOUDY    13   3  64 W8        30.50R WCI   2
BLAINE         CLOUDY    16   7  67 W10       30.49R WCI   3
LAKEVILLE      PTCLDY    10   7  85 W7        30.50S WCI   0
EDEN PRAIRIE   CLOUDY    13   5  70 W8        30.50R WCI   2
SOUTH ST PAUL  MOCLDY    16   7  68 W7        30.50S WCI   6
LAKE ELMO      CLOUDY    18   9  68 W8        30.50R WCI   7
$$
MNZ001>005-007-008-013>017-022>024-027-028-100200-
   Northwest Minnesota

CITY           SKY/WX    TMP DP  RH WIND       PRES   REMARKS
BEMIDJI        CLOUDY     1  -4  80 NW12      30.46R WCI -16
HALLOCK        CLOUDY    -4  -9  77 NW7       30.55S WCI -18
ROSEAU         CLOUDY     1  -6  71 W8        30.50S WCI -12
WARROAD        CLOUDY     0  -6  78 W6        30.48S WCI -12
THIEF RVR FALL MOCLDY    -5 -10  79 NW7       30.52S WCI -19
CROOKSTON      CLEAR     -6  -9  84 NW3       30.56S
FOSSTON        CLOUDY     0  -6  78 NW7       30.49S WCI -13
DETROIT LAKES  CLOUDY     0  -4  85 NW7       30.50R WCI -13
MOORHEAD       MOCLDY     0  -6  78 NW8       30.56S WCI -15
PARK RAPIDS    CLOUDY     4  -6  63 NW8       30.45S WCI  -9
$$
MNZ006-009>011-018-025>026-100200-
   North Central Minnesota

CITY           SKY/WX    TMP DP  RH WIND       PRES   REMARKS
BAUDETTE       PTCLDY    -3 -10  72 W9        30.45S WCI -19
FLAG ISLAND    PTCLDY     1  -2  85 W13       30.46S WCI -16
INTL FALLS     CLEAR     -1  -7  75 W7        30.44S WCI -14
WASKISH        CLOUDY     3  -2  78 NW8       30.46S WCI -10
BIG FORK       FLURRIES   3   0  85 NW3       30.43S
LONGVILLE      CLOUDY     7   0  72 W8        30.44S WCI  -6
GRAND RAPIDS   FLURRIES   7  -1  70 NW8       30.45S WCI  -6
CRANE LAKE     CLOUDY     3  -2  78 W5        30.45S WCI  -6
ORR            CLOUDY     3  -6  66 CALM      30.39S
COOK           CLOUDY     3  -2  78 CALM      30.42S
$$
MNZ012-019>021-037-100200-
   Northeast Minnesota

CITY           SKY/WX    TMP DP  RH WIND       PRES   REMARKS
DULUTH         FLURRIES   7   1  76 NW6       30.41S WCI  -3
ELY            CLOUDY     3  -6  66 W6        30.40S WCI  -8
HIBBING        FLURRIES   4  -1  80 CALM      30.41F
EVELETH        CLOUDY     6  -2  68 NW5       30.42S WCI  -3
DULUTH HARBOR  CLOUDY    12   1  62 W10       30.50R WCI  -1
TWO HARBORS    CLEAR      3  -2  78 CALM      30.42S
SILVER BAY     CLOUDY     7  -2  66 CALM      30.42R
GRAND MARAIS     N/A     12   3  67 W3        30.42S
G MARAIS ARPRT CLOUDY     5  -2  72 W3        30.30F
$$
MNZ029>031-032-039>041-046>048-054>057-064-100200-
   West Central Minnesota

CITY           SKY/WX    TMP DP  RH WIND       PRES   REMARKS
FERGUS FALLS   CLOUDY     1  -4  78 NW3       30.58S
WHEATON        CLEAR      3   0  85 W5        30.57S WCI  -6
MORRIS         PTCLDY     3   0  85 NW9       30.52S WCI -11
ALEXANDRIA     CLEAR      1  -4  79 NW8       30.49S WCI -13
ELBOW LAKE     FAIR      -1  -4  85 NW6       30.52S WCI -12
WADENA         MOCLDY     0  -4  85 W3        30.47S
GLENWOOD       CLEAR      0  -4  85 W6        30.50S WCI -12
APPLETON       CLOUDY     9   0  66 NW7       30.55R WCI  -3
BENSON         CLOUDY     7   0  72 NW3       30.53S
ORTONVILLE     CLOUDY     5  -2  72 CALM      30.54S
MADISON        CLOUDY     9   3  78 N8        30.55S WCI  -4
WILLMAR        MOCLDY     7   1  78 NW10      30.53R WCI  -8
$$
MNZ033>034-036-042>043-049>051-058-059-100200-
   Central Minnesota

CITY           SKY/WX    TMP DP  RH WIND       PRES   REMARKS
ST CLOUD       CLOUDY     9   1  70 W10       30.50R WCI  -5
PAYNESVILLE    CLOUDY     6   0  78 W7        30.51S WCI  -6
AITKIN         CLOUDY    12  -2  52 NW3       30.44S
PINE RIVER     CLOUDY     7   1  78 W7        30.47S WCI  -5
BRAINERD       CLOUDY     8   1  73 W7        30.46S WCI  -3
STAPLES        CLOUDY     3  -2  78 W8        30.47S WCI -10
LONG PRAIRIE   FAIR       3  -4  72 W6        30.49R WCI  -8
LITTLE FALLS   CLOUDY     9   1  72 W6        30.49S WCI  -1
LITCHFIELD     CLOUDY     9   3  78 NW8       30.51S WCI  -4
BUFFALO        CLOUDY    11   4  71 W9        30.51S WCI  -1
MAPLE LAKE     CLOUDY    11   5  76 W8        30.51S WCI  -1
HUTCHINSON     PTCLDY    10   4  78 W9        30.52S WCI  -4
$$
MNZ037-044-045-052-053-100200-
   East Central Minnesota

CITY           SKY/WX    TMP DP  RH WIND       PRES   REMARKS
PRINCETON      CLOUDY    12   7  79 W9        30.48S WCI   0
MORA           CLOUDY    12   3  67 NW8       30.49S WCI   1
CAMBRIDGE      FLURRIES  14   5  67 NW7       30.47R WCI   4
RUSH CITY      CLOUDY    12   5  73 NW7       30.48S WCI   2
MOOSE LAKE     CLOUDY    10   0  61 W6        30.45R WCI   1
HINCKLEY       CLOUDY    14   5  67 W9        30.47R WCI   2
CLOQUET        CLOUDY     9   1  72 W3        30.43R
MCGREGOR       CLOUDY    10   1  67 NW6       30.45S WCI   1
$$
MNZ071>073-080-081-089-090-097-098-100200-
   Southwest Minnesota

CITY           SKY/WX    TMP DP  RH WIND       PRES   REMARKS
MONTEVIDEO     CLOUDY     7   1  78 N7        30.56R WCI  -5
GRANITE FALLS  CLOUDY     9   3  76 NW9       30.56R WCI  -4
CANBY          CLOUDY     9   4  80 CALM      30.55S HAZE
MARSHALL       LGT SNOW   8   4  83 N9        30.53S FOG     WCI  -5
REDWOOD FALLS  CLOUDY    10   1  67 NW9       30.53S WCI  -3
OLIVIA         CLOUDY    10   5  79 NW9       30.52R WCI  -2
PIPESTONE      FLURRIES  10   7  85 N3        30.46S
WINDOM         FLURRIES  12   9  85 CALM      30.49S
WORTHINGTON    LGT SNOW  13   9  84 NW6       30.48S FOG     WCI   4
JACKSON        CLOUDY    14  10  85 NW5       30.48S HAZE    WCI   6
TRACY          CLOUDY    10   6  82 NW7       30.51S WCI  -1
SLAYTON        LGT SNOW  11   8  88 N6        30.47S WCI   2
$$
MNZ065>067-074>077-082>085-091>093-100200-
   South Central Minnesota

CITY           SKY/WX    TMP DP  RH WIND       PRES   REMARKS
MANKATO        LGT SNOW  12   8  84 W6        30.52S FOG     WCI   3
NEW ULM        CLOUDY    10   5  79 W7        30.53R WCI   0
ST JAMES       FLURRIES  12   9  85 NW7       30.53S WCI   2
FAIRMONT       LGT SNOW  16  11  80 NW8       30.51S WCI   5
GLENCOE        CLOUDY    11   7  83 W8        30.51S WCI  -1
FARIBAULT      CLOUDY    12   9  85 W6        30.50S WCI   3
OWATONNA       FLURRIES  14   9  79 W7        30.49R WCI   4
WASECA         LGT SNOW  14  12  92 W8        30.51S WCI   3
ALBERT LEA     CLOUDY    19  16  86 NW5       30.49R WCI  13
$$
MNZ078>079-086>088-094>096-100200-
   Southeast Minnesota

CITY           SKY/WX    TMP DP  RH WIND       PRES   REMARKS
ROCHESTER      PTCLDY    10   7  87 W7        30.47S WCI  -1
RED WING       CLOUDY    16   9  73 W9        30.50R WCI   4
STANTON        CLEAR     13   8  78 W7        30.50R WCI   3
DODGE CENTER   PTCLDY    14  10  85 W7        30.47R WCI   4
WINONA         CLOUDY    18  12  79 SW5       30.51S WCI  11
AUSTIN         MOCLDY    16  10  79 W7        30.48S WCI   6
PRESTON        PTCLDY    12   8  85 W6        30.48R WCI   3
$$
ABBREVIATIONS USED IN REMARKS
   TC - TEMPERATURES IN CELSIUS
  WCI - WIND CHILL INDEX
   HX - HEAT INDEX
  VSB - VISIBILITY
$$




USA.gov is the U.S. government's official web portal to all federal, state and local government web resources and services.